Regional Weather Roundup
Issued by NWS

Home | Current Version | Previous Version | Graphics & Text | Print | Product List | Glossary On
Versions: 1 2 3 4 5 6 7 8 9 10 11 12 13 14 15 16 17 18 19 20 21 22 23 24 25 26 27 28
000
ASUS45 KCYS 270210
RWRWY

WYOMING REGIONAL WEATHER ROUNDUP
NATIONAL WEATHER SERVICE CHEYENNE WY
800 PM MDT THU APR 26 2018

NOTE:  "FAIR" INDICATES FEW OR NO CLOUDS BELOW 12,000 FEET
WITH NO SIGNIFICANT WEATHER AND/OR OBSTRUCTIONS TO VISIBILITY.

WYZ001-270300-
YELLOWSTONE NATIONAL PARK

CITY           SKY/WX    TMP DP  RH WIND       PRES   REMARKS
LK YELLOWSTONE   N/A     37  24  59 CALM      30.28F
W YELLOWSTONE  NOT AVBL

$$
WYZ002>013-054>058-071-098>099-270300-
NORTHERN WYOMING

CITY           SKY/WX    TMP DP  RH WIND       PRES   REMARKS
JACKSON        FAIR      53  16  23 N7        30.20F
CODY           FAIR      58  25  28 SE7       30.17S
GREYBULL       FAIR      61  26  26 SE3       30.14S
WORLAND        FAIR      59  18  20 SE3       30.15F
SHERIDAN       FAIR      51  40  65 W3        30.13F
BUFFALO        FAIR      57  26  30 CALM      30.18S
GILLETTE       FAIR      46  33  60 NW7       30.14F
HULETT         FAIR      55  30  38 W5        30.15S
NEWCASTLE      FAIR      52  27  37 N7        30.15F

$$
WYZ014>020-022>026-101>103-270300-
CENTRAL WYOMING

CITY           SKY/WX    TMP DP  RH WIND       PRES   REMARKS
BIG PINEY      FAIR      57  10  15 SE6       30.22F
PINEDALE       FAIR      57  12  17 E9        30.24S
DUBOIS         FAIR      50  21  32 SE10      30.23S
LANDER         FAIR      55  23  28 E7        30.18F
RIVERTON       FAIR      56  23  27 E5        30.19F
CASPER         FAIR      55  23  28 SW5       30.18F
DOUGLAS          N/A     52  29  41 W6        30.18F

$$
WYZ021-027>030-104>119-270300-
SOUTHERN WYOMING

CITY           SKY/WX    TMP DP  RH WIND       PRES   REMARKS
EVANSTON       FAIR      60  14  16 E8        30.20F
KEMMERER       FAIR      57  10  15 E3        30.23F
FORT BRIDGER   FAIR      58  10  15 NE7       30.25S
ROCK SPRINGS   FAIR      55  13  18 E7        30.22S
DIXON          FAIR      53  20  28 N10       30.25R
RAWLINS        FAIR      48  18  30 N8        30.25S
SARATOGA       FAIR      52  16  24 CALM      30.26S
LARAMIE        FAIR      47  17  30 N6        30.26R
CHEYENNE       FAIR      49  28  44 NE3       30.24R
TORRINGTON     FAIR      57  29  34 W5        30.16S
PINE BLUFFS    FAIR      46  28  49 N3        30.22S

$$




USA.gov is the U.S. government's official web portal to all federal, state and local government web resources and services.